Location: Althorst
(53.6379°N, 10.7715°E)
Time: 12:52:07
(UTC+00:00)

Envisat - Pass Details

Date: 10 December 2019
Orbit: 764 x 766 km, 98.1° (Epoch: 17 January)

Event Time Altitude Azimuth Distance (km) Brightness Sun altitude
Rises 17:37:40 0° 183° (S) 3,223 6.4 -22.3°
Reaches altitude 10° 17:40:04 10° 190° (S) 2,302 5.7 -22.7°
Maximum altitude 17:44:54 44° 262° (W) 1,064 4.2 -23.4°
Drops below altitude 10° 17:49:46 10° 335° (NNW) 2,318 5.7 -24.1°
Sets 17:52:12 0° 342° (NNW) 3,248 6.4 -24.5°
